Content
SEND FEEDBACK

Daily
Averages
Monthly
Summary
Sweden

ODESHOG, SWEDEN


Home > Europe > Sweden
Elevation: 315 feet     Latitude: 58 30N     Longitude: 014 30E

WEATHER
 
SELECT A DAY
Number of Records: 59,885;   Date Range: 2/20/97 - 10/18/14
 
SHARE

PRINT THIS DATA

[ ← Previous Day ]
WEATHER ALMANAC - JANUARY 31, 2013
[ Next Day → ]
[ °C ]   °F
Weather ElementAverageHighLow
Temperature34.8 °F39.2 °F (12:50 am)21.2 °F (11:50 pm)
Dewpoint32.6 °F39.2 °F (7:50 am)21.2 °F (11:50 pm)
Humidity92.1 %100 % (3:20 am)70 % (2:50 pm)
Barometer29.05 in29.30 in (10:50 pm)28.82 in (3:20 am)
Wind Speed7.8 mph16.1 mph (4:20 am)
Weather ElementAverage
Visibility5.7 mi
Wind DirectionSW (225.3 °)

Weather ElementTotal
Precipitation---
Heating Degree Days34.8 (Base 65)
Averaged from 47 records on January 31, 2013
WEATHER CONDITIONS BREAKOUT
WIND DIRECTION BREAKOUT
WEATHER BY HOUR - JANUARY 31, 2013
[ °C ]   °F
Local TimeTemperatureDewpointHumidityBarometerVisibilityWind DirectionWind SpeedGust SpeedPrecipitationEventsConditions
12:50 AM39.2 °F35.6 °F87 %28.88 in6.2 miSSW (210°)12.7 mphLight Drizzle
1:20 AM39.2 °F37.4 °F93 %28.88 in6.2 miSSW (210°)13.8 mphOvercast
1:50 AM39.2 °F37.4 °F93 %28.88 in6.2 miSSW (210°)15.0 mphOvercast
2:20 AM39.2 °F37.4 °F93 %28.85 in6.2 miSSW (210°)15.0 mphOvercast
2:50 AM39.2 °F37.4 °F93 %28.85 in6.2 miSSW (210°)15.0 mphOvercast
3:20 AM37.4 °F37.4 °F100 %28.82 in3.7 miSSW (200°)13.8 mphOvercast
3:50 AM39.2 °F37.4 °F93 %28.82 in6.2 miSSW (200°)12.7 mphOvercast
4:20 AM39.2 °F37.4 °F93 %28.82 in6.2 miSSW (210°)16.1 mphOvercast
4:50 AM37.4 °F35.6 °F93 %28.82 in6.2 miSSW (210°)11.5 mphOvercast
5:20 AM37.4 °F37.4 °F100 %28.82 in5.0 miSSW (200°)11.5 mphOvercast
5:50 AM37.4 °F37.4 °F100 %28.82 in5.6 miSSW (200°)9.2 mphOvercast
6:20 AM37.4 °F37.4 °F100 %28.82 in4.3 miSSW (200°)6.9 mphOvercast
6:50 AM37.4 °F37.4 °F100 %28.82 in3.7 miSouth (190°)4.6 mphOvercast
7:20 AM37.4 °F37.4 °F100 %28.82 in3.7 miVariable2.3 mphOvercast
7:50 AM39.2 °F39.2 °F100 %28.85 in4.3 miWest (260°)3.5 mphOvercast
8:20 AM39.2 °F39.2 °F100 %28.88 in6.2 miWNW (290°)6.9 mphOvercast
8:50 AM39.2 °F39.2 °F100 %28.91 in4.3 miWNW (290°)9.2 mphOvercast
9:20 AM39.2 °F39.2 °F100 %28.91 in3.7 miWNW (300°)8.1 mphOvercast
9:50 AM39.2 °F39.2 °F100 %28.94 inWNW (300°)10.4 mphDrizzle
10:20 AM37.4 °F37.4 °F100 %28.97 inNW (310°)9.2 mphDrizzle
10:50 AM37.4 °F37.4 °F100 %29.00 in1.6 miNW (320°)10.4 mphDrizzle
11:20 AM37.4 °F37.4 °F100 %29.03 in5.6 miNW (320°)12.7 mphRainLight Rain
11:50 AM37.4 °F35.6 °F93 %29.06 in6.2 miNW (320°)12.7 mphDrizzle
12:20 PM37.4 °F35.6 °F93 %29.06 in6.2 miWNW (300°)10.4 mphOvercast
12:50 PM37.4 °F35.6 °F93 %29.09 in6.2 miWNW (300°)9.2 mphOvercast
1:20 PM37.4 °F33.8 °F87 %29.12 in6.2 miWNW (300°)11.5 mphOvercast
1:50 PM37.4 °F32.0 °F81 %29.12 in6.2 miNW (310°)9.2 mphOvercast
2:20 PM37.4 °F30.2 °F75 %29.15 in6.2 miNW (310°)9.2 mphOvercast
2:50 PM39.2 °F30.2 °F70 %29.15 in6.2 miWNW (300°)10.4 mphOvercast
3:20 PM37.4 °F28.4 °F70 %29.15 in6.2 miWNW (300°)8.1 mphOvercast
3:50 PM37.4 °F28.4 °F70 %29.18 in6.2 miNW (310°)5.8 mphMostly Cloudy
4:20 PM35.6 °F28.4 °F75 %29.18 in6.2 miWest (270°)4.6 mphMostly Cloudy
4:50 PM35.6 °F28.4 °F75 %29.18 in6.2 miWest (270°)4.6 mph
5:20 PM33.8 °F28.4 °F81 %29.21 in6.2 miWest (260°)4.6 mph
5:50 PM33.8 °F28.4 °F81 %29.21 in6.2 miVariable2.3 mph
6:20 PM33.8 °F26.6 °F75 %29.21 in6.2 miWNW (300°)4.6 mph
6:50 PM32.0 °F26.6 °F80 %29.21 in6.2 miWest (270°)3.5 mph
7:20 PM26.6 °F26.6 °F100 %29.21 in6.2 miVariable2.3 mph
7:50 PM28.4 °F26.6 °F93 %29.24 in6.2 miWest (280°)3.5 mph
8:20 PM24.8 °F24.8 °F100 %29.24 in6.2 miSSW (210°)3.5 mph
8:50 PM24.8 °F24.8 °F100 %29.24 in6.2 miSouth (180°)2.3 mph
9:20 PM26.6 °F26.6 °F100 %29.27 in6.2 miVariable1.2 mph
9:50 PM24.8 °F24.8 °F100 %29.27 in6.2 miSSW (200°)2.3 mph
10:20 PM24.8 °F24.8 °F100 %29.27 in6.2 miSouth (190°)3.5 mph
10:50 PM23.0 °F23.0 °F100 %29.30 in6.2 miSouth (180°)1.2 mph
11:20 PM23.0 °F23.0 °F100 %29.30 in6.2 miCalm
11:50 PM21.2 °F21.2 °F100 %29.30 in6.2 miSouth (180°)3.5 mph
Hourly data recorded from ESGR, located miles away from Odeshog, Sweden







STORIES FROM OUR PARTNERS